This is the latest recevied weather packets stored in our database for station/object NI4CE-10. If no packets are shown the sender has not sent any weather packets the latest 10 day(s).
| Time | Temp. | Humidity | Pressure | Rain* | Wind** | Luminosity | Snow |
|---|---|---|---|---|---|---|---|
| 1777556478 | 25.56° C | 100% | 1015.9 hPa | 0 mm | - | - | - |
| 1777556179 | 25° C | 100% | 1015.9 hPa | 0 mm | - | - | - |
| 1777555878 | 25° C | 100% | 1016.1 hPa | 0 mm | - | - | - |
| 1777555578 | 25° C | 100% | 1016 hPa | 0 mm | - | - | - |
| 1777555503 | 22.78° C | 100% | 1016 hPa | 0 mm | - | - | - |
| 1777555278 | 23.33° C | 100% | 1016.1 hPa | 0 mm | - | - | - |
| 1777554979 | 23.33° C | 100% | 1016.1 hPa | 0 mm | - | - | - |
| 1777554679 | 22.78° C | 100% | 1016 hPa | 0 mm | - | - | - |
| 1777554532 | 22.78° C | 100% | 1016.1 hPa | 0 mm | - | - | - |
| 1777554379 | 22.78° C | 100% | 1016.1 hPa | 0 mm | - | - | - |
| 1777554079 | 22.78° C | 100% | 1016.1 hPa | 0 mm | - | - | - |
| 1777553779 | 22.22° C | 100% | 1016 hPa | 0 mm | - | - | - |
| 1777553479 | 22.22° C | 100% | 1016.1 hPa | 0 mm | - | - | - |
| 1777553179 | 22.22° C | 100% | 1015.9 hPa | 0 mm | - | - | - |
| 1777552879 | 22.22° C | 100% | 1015.7 hPa | 0 mm | - | - | - |
| 1777552579 | 21.67° C | 100% | 1015.6 hPa | 0 mm | - | - | - |
| 1777552279 | 21.67° C | 100% | 1015.7 hPa | 0 mm | - | - | - |
| 1777551979 | 21.67° C | 100% | 1015.8 hPa | 0 mm | - | - | - |
| 1777551679 | 21.67° C | 100% | 1015.7 hPa | 0 mm | - | - | - |
| 1777551379 | 21.11° C | 100% | 1015.5 hPa | 0 mm | - | - | - |
| 1777551079 | 21.11° C | 100% | 1015.4 hPa | 0 mm | - | - | - |
| 1777550779 | 21.11° C | 100% | 1015.5 hPa | 0 mm | - | - | - |
| 1777550479 | 21.11° C | 100% | 1015.5 hPa | 0 mm | - | - | - |
| 1777550179 | 21.11° C | 100% | 1015.4 hPa | 0 mm | - | - | - |
| 1777550088 | 20.56° C | 100% | 1015.3 hPa | 0 mm | - | - | - |
* Rain latest hour (hover to see other rain measurements)
** Current wind speed in m/s (hover to see current wind gust speed)